FW0827 Weather Reports


Display with metric or nautical units.
time (UTC)temp
F
wind
direction
speed
MPH
gust
MPH
rain 1hr
in
rain 24hr
in
rain mn
in
humidity
%
barometer
mb
20260901014704 68 330 0.0 0.0 0.00 0.03 0.00 99 1018.6
20260901014204 68 330 0.0 0.0 0.00 0.03 0.00 99 1018.5
20260901013703 68 330 0.0 0.0 0.00 0.03 0.00 99 1018.7
20260901013204 68 330 0.0 0.0 0.00 0.03 0.00 99 1018.8
20260901012704 69 330 0.0 0.0 0.00 0.03 0.00 99 1018.4
20260901011706 69 330 0.0 0.0 0.00 0.03 0.00 99 1018.6
20260901011205 69 330 0.0 0.0 0.00 0.03 0.00 99 1018.6
20260901010705 69 330 0.0 0.0 0.00 0.03 0.00 99 1018.6
20260901010205 69 330 0.0 0.0 0.00 0.03 0.00 99 1018.9
20260901005704 69 330 0.0 0.0 0.00 0.03 0.00 99 1018.6
20260901005204 69 330 0.0 0.0 0.00 0.03 0.00 99 1018.5
20260901004704 69 330 0.0 0.0 0.00 0.03 0.00 99 1018.5
20260901003705 69 330 0.0 0.0 0.00 0.03 0.00 99 1018.6
20260901003205 69 330 0.0 0.0 0.00 0.03 0.00 99 1018.6
20260901002704 69 330 0.0 0.0 0.00 0.03 0.00 99 1018.4
20260901002204 70 330 0.0 0.0 0.00 0.03 0.00 99 1018.3
20260901001704 70 330 0.0 0.0 0.00 0.03 0.00 98 1018.1
20260901001205 70 330 0.0 0.0 0.00 0.03 0.00 98 1018.3
20260901000704 70 330 0.0 0.0 0.00 0.03 0.00 98 1018.3
20260901000204 70 330 0.0 0.0 0.00 0.03 0.00 97 1018.1
20260831235704 71 330 0.0 0.0 0.00 0.03 0.00 97 1018.1
20260831235205 71 330 0.0 0.0 0.00 0.03 0.00 96 1018.2
20260831234704 71 330 0.0 0.0 0.00 0.03 0.00 96 1018.2
20260831234204 71 330 0.0 0.0 0.00 0.03 0.00 96 1018.3
20260831233704 72 330 0.0 0.0 0.00 0.03 0.00 96 1018.2
20260831233206 72 330 0.0 0.0 0.00 0.03 0.00 95 1018.3
20260831232704 72 330 0.0 0.0 0.00 0.03 0.00 95 1018.2
20260831232205 73 330 0.0 0.0 0.00 0.03 0.00 94 1018.1
20260831231704 73 330 0.0 1.0 0.00 0.03 0.00 93 1018.3
20260831230705 73 331 0.0 0.0 0.00 0.03 0.00 91 1018.4
20260831230204 74 331 0.0 0.0 0.00 0.03 0.00 91 1018.4
20260831225704 74 331 0.0 0.0 0.00 0.03 0.00 91 1018.6
20260831225205 74 331 0.0 1.0 0.00 0.03 0.00 90 1018.5
20260831224704 74 330 0.0 0.0 0.00 0.03 0.00 90 1018.7
20260831223704 74 331 0.0 0.0 0.00 0.03 0.00 90 1018.8
20260831223204 74 286 0.0 0.0 0.00 0.03 0.00 89 1018.7
20260831222704 75 284 0.0 0.0 0.00 0.03 0.00 89 1018.8
20260831222204 75 284 0.0 0.0 0.00 0.03 0.00 88 1018.8
20260831221704 75 282 0.0 1.0 0.00 0.03 0.00 88 1018.6
20260831221204 75 281 0.0 0.0 0.00 0.03 0.00 88 1018.7
20260831220704 75 282 0.0 1.0 0.00 0.03 0.00 88 1018.8
20260831220206 75 277 1.0 1.0 0.00 0.03 0.00 87 1018.9
20260831215704 76 12 0.0 0.0 0.00 0.03 0.00 88 1018.8
20260831215204 76 13 0.0 1.0 0.00 0.03 0.00 87 1018.8
20260831214705 76 13 1.0 1.0 0.00 0.03 0.00 88 1018.7
20260831214204 75 13 0.0 3.0 0.00 0.03 0.00 87 1019.1
20260831213704 75 23 1.0 3.0 0.00 0.03 0.00 86 1018.9
20260831213205 75 9 1.0 3.0 0.00 0.03 0.00 87 1019.1
20260831212206 75 39 1.0 3.0 0.00 0.03 0.00 89 1019.3
20260831211706 75 2 1.0 3.0 0.00 0.03 0.00 88 1019.2
20260831210703 76 12 2.0 3.0 0.00 0.03 0.00 88 1019.2
20260831210204 76 31 1.0 3.0 0.00 0.03 0.00 86 1019.4
20260831205704 76 356 0.0 0.0 0.00 0.03 0.00 87 1019.1
20260831205204 76 356 0.0 0.0 0.00 0.03 0.00 87 1019.3
20260831204205 75 356 1.0 3.0 0.00 0.03 0.00 86 1019.1
20260831203704 75 2 0.0 1.0 0.00 0.03 0.00 87 1019.3
20260831203204 76 2 1.0 1.0 0.00 0.03 0.00 87 1019.2
20260831202204 75 2 0.0 1.0 0.00 0.03 0.00 85 1019.5
20260831200703 76 8 1.0 5.0 0.00 0.03 0.00 84 1019.6
20260831200205 77 37 1.0 3.0 0.00 0.03 0.00 82 1019.7
20260831194706 78 21 2.0 3.0 0.00 0.03 0.00 80 1019.7
20260831194205 78 355 0.0 1.0 0.00 0.03 0.00 79 1019.6
20260831193704 78 358 1.0 1.0 0.00 0.03 0.00 80 1019.7
20260831193204 78 353 0.0 1.0 0.00 0.03 0.00 81 1019.8
20260831192704 78 353 0.0 0.0 0.00 0.03 0.00 81 1019.8
20260831192205 79 353 0.0 0.0 0.00 0.03 0.00 79 1019.8
20260831191704 78 353 0.0 1.0 0.00 0.03 0.00 80 1020.0
20260831191205 78 353 0.0 1.0 0.00 0.03 0.00 81 1020.1
20260831190705 78 353 0.0 1.0 0.00 0.03 0.00 81 1020.1
20260831185704 77 6 0.0 1.0 0.00 0.03 0.00 80 1020.3
20260831185204 78 6 0.0 0.0 0.00 0.03 0.00 79 1020.5
20260831184704 79 6 0.0 1.0 0.00 0.05 0.00 79 1020.1
20260831183204 78 6 0.0 0.0 0.00 0.06 0.00 77 1020.3
20260831182704 78 6 0.0 0.0 0.00 0.06 0.00 79 1020.4
20260831182204 77 6 0.0 0.0 0.00 0.06 0.00 79 1020.1
20260831181705 77 6 0.0 0.0 0.00 0.06 0.00 83 1020.2
20260831181204 77 6 0.0 0.0 0.00 0.06 0.00 81 1020.2
20260831180706 77 6 0.0 1.0 0.00 0.06 0.00 83 1020.2
20260831180205 77 6 0.0 1.0 0.00 0.06 0.00 81 1020.2
20260831175705 77 6 0.0 1.0 0.00 0.06 0.00 81 1020.4
20260831175205 78 6 0.0 3.0 0.00 0.06 0.00 82 1020.2
20260831174704 78 7 1.0 3.0 0.00 0.06 0.00 80 1020.2
20260831173704 79 318 0.0 0.0 0.00 0.06 0.00 79 1020.3
20260831173204 78 300 0.0 0.0 0.00 0.06 0.00 77 1020.4
20260831172704 78 296 0.0 0.0 0.00 0.06 0.00 80 1020.4
20260831171704 76 301 0.0 0.0 0.00 0.06 0.00 83 1020.5
20260831171204 76 300 0.0 0.0 0.00 0.06 0.00 84 1020.5
20260831170204 76 318 0.0 0.0 0.00 0.06 0.00 84 1020.5
20260831165704 76 342 0.0 0.0 0.00 0.06 0.00 84 1020.5
20260831165205 77 342 0.0 0.0 0.00 0.06 0.00 83 1020.4
20260831164705 77 342 0.0 0.0 0.00 0.06 0.00 83 1020.6
20260831164205 78 342 0.0 1.0 0.00 0.06 0.00 80 1020.4
20260831163705 78 342 1.0 3.0 0.00 0.06 0.00 77 1020.3
20260831163204 79 302 0.0 1.0 0.00 0.06 0.00 78 1020.3
20260831162205 76 36 1.0 5.0 0.00 0.06 0.00 77 1020.3
20260831161705 78 74 3.0 5.0 0.00 0.06 0.00 77 1020.2
20260831161205 79 312 0.0 1.0 0.00 0.06 0.00 77 1020.1
20260831160205 78 56 2.0 5.0 0.00 0.06 0.00 78 1020.3
20260831155704 79 312 0.0 1.0 0.00 0.06 0.00 78 1020.5
20260831155204 77 305 0.0 3.0 0.00 0.06 0.00 80 1020.6
20260831154704 77 317 2.0 5.0 0.00 0.06 0.00 78 1020.8
20260831154205 78 315 2.0 5.0 0.00 0.06 0.00 76 1020.5
20260831153704 78 267 1.0 3.0 0.00 0.06 0.00 75 1020.5
20260831153205 76 325 1.0 3.0 0.00 0.06 0.00 81 1020.4
20260831151705 75 31 1.0 3.0 0.00 0.06 0.00 80 1020.5
20260831151206 74 28 1.0 3.0 0.00 0.06 0.00 82 1020.4
20260831150704 74 343 1.0 5.0 0.00 0.06 0.00 82 1020.4
20260831150205 74 29 1.0 3.0 0.00 0.06 0.00 82 1020.7
20260831145705 73 292 0.0 5.0 0.00 0.06 0.00 82 1021.0
20260831144204 73 12 2.0 8.0 0.00 0.06 0.00 83 1021.0
20260831143705 73 52 2.0 8.0 0.00 0.06 0.00 84 1020.7
20260831142705 73 346 1.0 3.0 0.00 0.06 0.00 83 1021.0
20260831142204 73 345 1.0 5.0 0.00 0.06 0.00 82 1021.0
20260831141706 73 350 1.0 3.0 0.00 0.06 0.00 81 1020.9
20260831141205 74 332 0.0 3.0 0.00 0.06 0.00 81 1020.9
20260831140704 74 329 1.0 3.0 0.00 0.06 0.00 82 1020.9
20260831135705 73 250 2.0 3.0 0.00 0.06 0.00 83 1020.8
20260831135204 73 324 0.0 1.0 0.00 0.06 0.00 84 1020.7
20260831134704 74 329 1.0 1.0 0.00 0.06 0.00 83 1020.8
20260831133704 73 335 0.0 1.0 0.00 0.06 0.00 88 1020.8
20260831132705 73 343 0.0 1.0 0.00 0.06 0.00 87 1020.6
20260831132205 72 343 0.0 3.0 0.00 0.06 0.00 87 1020.8
20260831131705 72 346 1.0 3.0 0.00 0.06 0.00 87 1020.7
20260831131205 72 244 1.0 3.0 0.00 0.06 0.00 88 1020.5
20260831130705 72 344 0.0 0.0 0.00 0.06 0.00 90 1020.7
20260831130205 71 344 0.0 1.0 0.00 0.06 0.00 90 1020.7
20260831125705 71 344 0.0 0.0 0.00 0.06 0.00 90 1020.7
20260831125204 71 344 0.0 1.0 0.00 0.06 0.00 91 1020.7
20260831124704 71 344 0.0 3.0 0.00 0.06 0.00 91 1020.8
20260831124205 71 349 1.0 3.0 0.00 0.06 0.00 91 1020.9
20260831123704 71 3 1.0 7.0 0.00 0.06 0.00 91 1020.8
20260831123204 71 349 1.0 3.0 0.00 0.06 0.00 92 1020.7
20260831122704 71 20 1.0 5.0 0.00 0.06 0.00 91 1020.7
20260831122205 71 38 1.0 5.0 0.00 0.06 0.00 90 1020.5
20260831121705 71 5 1.0 5.0 0.00 0.06 0.00 91 1020.6
20260831121205 72 358 2.0 5.0 0.00 0.06 0.00 90 1020.6
20260831120705 72 344 1.0 5.0 0.00 0.06 0.00 89 1020.4
20260831115204 71 333 2.0 3.0 0.00 0.06 0.00 91 1020.6
20260831114704 72 337 0.0 3.0 0.00 0.06 0.00 91 1020.4
20260831114204 71 318 0.0 0.0 0.00 0.06 0.00 93 1020.5
20260831113204 70 332 0.0 0.0 0.00 0.06 0.00 95 1020.2
20260831112204 70 332 0.0 0.0 0.00 0.06 0.00 95 1020.2
20260831111706 69 332 0.0 0.0 0.00 0.06 0.00 96 1020.2
20260831111205 69 332 0.0 3.0 0.00 0.06 0.00 95 1020.2
20260831110705 69 333 0.0 1.0 0.00 0.06 0.00 95 1019.9
20260831105204 69 332 0.0 0.0 0.00 0.06 0.00 94 1020.0
20260831104705 69 333 0.0 3.0 0.00 0.06 0.00 94 1020.1
20260831104204 69 349 0.0 3.0 0.00 0.06 0.00 94 1019.9
20260831103704 69 345 0.0 3.0 0.00 0.06 0.00 95 1020.0
20260831102704 69 345 0.0 3.0 0.00 0.06 0.00 95 1020.0
20260831102204 69 345 0.0 0.0 0.00 0.06 0.00 96 1019.6
20260831100205 69 322 1.0 5.0 0.00 0.06 0.00 97 1019.7
20260831095706 69 322 1.0 5.0 0.00 0.06 0.00 98 1019.5
20260831094704 69 314 0.0 1.0 0.00 0.06 0.00 99 1019.5
20260831094204 69 335 0.0 5.0 0.00 0.06 0.00 99 1019.4
20260831093205 70 336 1.0 3.0 0.00 0.06 0.00 99 1019.5
20260831092705 70 345 0.0 5.0 0.00 0.06 0.00 99 1019.4
20260831092204 70 5 1.0 7.0 0.00 0.06 0.00 99 1019.1
20260831091705 70 17 0.0 3.0 0.00 0.06 0.00 99 1019.1
20260831091205 70 345 0.0 8.0 0.00 0.06 0.00 99 1019.0
20260831090705 70 15 3.0 12.0 0.00 0.06 0.00 99 1019.1
20260831090205 69 7 1.0 12.0 0.00 0.06 0.00 99 1019.5
20260831085705 69 354 0.0 7.0 0.00 0.06 0.00 99 1019.1
20260831085206 69 5 1.0 7.0 0.00 0.06 0.00 99 1019.4
20260831084705 69 338 0.0 0.0 0.00 0.06 0.00 99 1019.3
20260831084205 69 338 0.0 5.0 0.00 0.06 0.00 99 1019.3
20260831083204 69 322 0.0 5.0 0.00 0.06 0.00 99 1019.2
20260831082705 69 319 0.0 0.0 0.00 0.06 0.00 99 1019.2
20260831082204 69 319 0.0 0.0 0.00 0.06 0.00 99 1019.3
20260831081704 69 319 0.0 0.0 0.00 0.06 0.00 99 1019.1
20260831081205 69 319 0.0 0.0 0.00 0.06 0.00 99 1019.1
20260831080705 69 321 0.0 0.0 0.00 0.06 0.00 99 1019.0
20260831080206 69 321 1.0 3.0 0.00 0.06 0.00 99 1019.0
20260831074705 69 321 0.0 1.0 0.00 0.06 0.00 99 1018.9
20260831074204 69 320 0.0 0.0 0.00 0.06 0.00 99 1019.2
20260831070705 69 320 0.0 0.0 0.00 0.06 0.00 99 1019.1
20260831070205 69 319 0.0 0.0 0.00 0.06 0.00 99 1019.4
20260831065705 69 319 0.0 0.0 0.00 0.06 0.00 99 1019.4
20260831065204 69 319 0.0 0.0 0.00 0.06 0.00 99 1019.3
20260831064704 69 319 0.0 0.0 0.00 0.06 0.00 99 1019.3
20260831064206 69 319 0.0 0.0 0.00 0.06 0.00 99 1019.5
20260831063205 69 319 0.0 0.0 0.00 0.06 0.00 99 1019.4
20260831062704 69 319 0.0 0.0 0.00 0.06 0.00 99 1019.5
20260831061704 69 319 0.0 0.0 0.00 0.06 0.00 99 1019.5
20260831060705 69 320 0.0 0.0 0.00 0.06 0.00 99 1019.6
20260831060204 69 319 0.0 0.0 0.00 0.06 0.00 99 1019.3
20260831055704 69 319 0.0 0.0 0.00 0.06 0.00 99 1019.3
20260831055205 70 319 0.0 0.0 0.00 0.06 0.00 99 1019.3
20260831054704 70 318 0.0 0.0 0.00 0.06 0.00 99 1019.3
20260831054205 70 318 0.0 0.0 0.00 0.06 0.00 99 1019.3
20260831053704 70 318 0.0 0.0 0.00 0.06 0.00 99 1019.3
20260831052704 70 318 0.0 0.0 0.00 0.06 0.00 99 1019.4
20260831051704 70 318 0.0 0.0 0.00 0.06 0.00 99 1019.4
20260831051205 70 318 0.0 0.0 0.00 0.06 0.00 99 1019.3
20260831050705 70 318 0.0 0.0 0.00 0.06 0.00 99 1019.4
20260831050204 70 318 0.0 0.0 0.00 0.06 0.00 99 1019.2
20260831045704 71 318 0.0 0.0 0.03 0.06 0.00 99 1019.3
20260831045205 71 318 0.0 0.0 0.03 0.06 0.00 99 1019.4
20260831044204 71 318 0.0 0.0 0.03 0.06 0.00 98 1019.3
20260831043704 71 318 0.0 0.0 0.03 0.06 0.00 97 1019.3
20260831043204 72 318 0.0 0.0 0.03 0.06 0.00 97 1019.4
20260831042704 72 331 0.0 3.0 0.03 0.06 0.00 97 1019.5
20260831042204 72 331 1.0 5.0 0.03 0.06 0.00 97 1019.4
20260831041705 71 339 0.0 3.0 0.03 0.06 0.00 97 1019.6
20260831040205 71 309 0.0 0.0 0.03 0.06 0.00 98 1019.7
20260831035704 71 309 0.0 0.0 0.00 0.03 0.03 98 1019.6
20260831035204 71 311 0.0 1.0 0.00 0.03 0.03 98 1019.5
20260831034704 71 311 0.0 1.0 0.00 0.03 0.03 98 1019.4
20260831034205 71 294 0.0 0.0 0.00 0.03 0.03 98 1019.4
20260831033705 71 294 0.0 0.0 0.00 0.03 0.03 98 1019.4
20260831033205 71 294 0.0 0.0 0.00 0.03 0.03 97 1019.6
20260831032704 71 294 0.0 1.0 0.00 0.03 0.03 97 1019.5
20260831032205 71 294 0.0 1.0 0.00 0.03 0.03 97 1019.6
20260831031704 71 294 0.0 0.0 0.00 0.03 0.03 97 1019.7
20260831031204 71 294 0.0 0.0 0.00 0.03 0.03 96 1019.7
20260831030705 71 294 0.0 0.0 0.00 0.03 0.03 96 1019.8
20260831030204 72 294 0.0 0.0 0.00 0.03 0.03 95 1019.7
20260831025705 72 294 0.0 0.0 0.00 0.03 0.03 95 1019.8
20260831025204 72 294 0.0 0.0 0.00 0.03 0.03 95 1019.8
20260831024706 72 293 0.0 1.0 0.00 0.03 0.03 95 1019.9
20260831024205 73 285 1.0 1.0 0.00 0.03 0.03 95 1020.0
20260831023705 73 294 0.0 1.0 0.00 0.03 0.03 95 1020.0
20260831023205 73 287 0.0 5.0 0.00 0.03 0.03 95 1020.0
20260831022704 74 285 0.0 1.0 0.00 0.03 0.03 95 1020.2
20260831022204 74 287 1.0 8.0 0.00 0.03 0.03 95 1020.0
20260831021704 74 253 2.0 5.0 0.00 0.03 0.03 96 1020.0
20260831021204 74 284 0.0 3.0 0.00 0.03 0.03 98 1019.9
20260831020205 74 284 0.0 5.0 0.00 0.03 0.03 98 1019.8
20260831015705 74 254 1.0 5.0 0.00 0.03 0.03 99 1019.8
20260831015206 74 293 0.0 3.0 0.00 0.03 0.03 99 1019.5